FW5236 Weather Reports


time (UTC)temp
F
wind
direction
speed
knots
gust
knots
rain 1hr
in
rain 24hr
in
rain mn
in
humidity
%
barometer
mb
20260505211532 77 46 0.9 3.5 0.00 0.00 0.00 43 1014.9
20260505210029 77 39 0.0 3.5 0.00 0.00 0.00 44 1015.1
20260505204532 76 41 0.9 3.5 0.00 0.00 0.00 45 1015.3
20260505203032 76 44 0.9 3.5 0.00 0.00 0.00 44 1015.3
20260505201530 75 43 0.9 4.3 0.00 0.00 0.00 45 1015.4
20260505200033 73 34 0.9 2.6 0.00 0.00 0.00 48 1015.5
20260505193030 73 52 1.7 3.5 0.00 0.00 0.00 49 1015.7
20260505191605 72 45 1.7 5.2 0.00 0.00 0.00 50 1015.7
20260505190105 71 48 0.9 3.5 0.00 0.00 0.00 51 1015.8
20260505184530 70 37 0.9 3.5 0.00 0.00 0.00 52 1015.9
20260505183030 70 44 1.7 5.2 0.00 0.00 0.00 53 1016.0
20260505181532 69 50 1.7 4.3 0.00 0.00 0.00 54 1015.9
20260505180032 69 45 1.7 4.3 0.00 0.00 0.00 55 1015.9
20260505174530 68 42 0.9 3.5 0.00 0.00 0.00 56 1016.0
20260505171531 67 39 0.9 4.3 0.00 0.00 0.00 60 1015.9
20260505170029 66 53 0.9 3.5 0.00 0.00 0.00 61 1015.9
20260505164529 65 41 0.9 3.5 0.00 0.00 0.00 63 1015.9
20260505163030 64 43 0.9 6.1 0.00 0.00 0.00 65 1016.0
20260505161530 63 42 0.9 3.5 0.00 0.00 0.00 68 1016.0
20260505153029 58 360 0.0 1.7 0.00 0.00 0.00 80 1015.9
20260505151607 55 231 0.0 0.0 0.00 0.00 0.00 86 1015.9
20260505124531 49 245 0.0 1.7 0.00 0.00 0.00 90 1014.3
20260505123032 49 225 0.0 0.9 0.00 0.00 0.00 89 1014.2
20260505121529 50 232 0.0 3.5 0.00 0.00 0.00 88 1014.1
20260505120030 51 226 0.0 2.6 0.00 0.00 0.00 87 1014.0
20260505114528 51 238 0.0 3.5 0.00 0.00 0.00 87 1014.0
20260505113034 51 244 0.0 2.6 0.00 0.00 0.00 86 1013.9
20260505111531 52 268 0.0 2.6 0.00 0.00 0.00 86 1013.8
20260505101531 54 246 0.0 2.6 0.00 0.00 0.00 83 1013.4
20260505100030 54 272 0.0 2.6 0.00 0.00 0.00 83 1013.2
20260505094533 55 313 0.0 1.7 0.00 0.00 0.00 83 1013.2
20260505093104 55 265 0.0 2.6 0.00 0.00 0.00 80 1013.1
20260505091531 57 263 0.9 3.5 0.00 0.00 0.00 79 1013.1
20260505090030 58 30 0.0 0.9 0.00 0.00 0.00 80 1012.9
20260505084644 57 25 0.0 3.5 0.00 0.00 0.00 81 1012.9
20260505083028 58 344 0.0 2.6 0.00 0.00 0.00 79 1013.0
20260505081526 58 9 0.0 2.6 0.00 0.00 0.00 77 1012.9
20260505080033 59 10 0.0 1.7 0.00 0.00 0.00 75 1012.9
20260505074530 59 23 0.0 1.7 0.00 0.00 0.00 74 1012.9
20260505073031 59 32 0.0 1.7 0.00 0.00 0.00 72 1012.7
20260505071533 60 292 0.0 2.6 0.00 0.00 0.00 70 1012.7
20260505070031 60 21 0.0 2.6 0.00 0.00 0.00 69 1012.4
20260505061533 62 347 0.0 3.5 0.00 0.00 0.00 63 1012.4
20260505054532 63 13 0.0 3.5 0.00 0.00 0.00 60 1012.2
20260505053106 63 324 0.9 3.5 0.00 0.00 0.00 59 1012.1
20260505051532 63 308 0.0 2.6 0.00 0.00 0.00 59 1012.0
20260505041603 67 346 0.0 3.5 0.00 0.00 0.00 54 1011.5
20260505040043 68 6 0.0 3.5 0.00 0.00 0.00 53 1011.2
20260505034605 67 18 0.9 5.2 0.00 0.00 0.00 55 1010.9
20260505033107 67 17 0.0 3.5 0.00 0.00 0.00 56 1010.9
20260505031604 69 2 0.0 2.6 0.00 0.00 0.00 55 1010.6
20260505030032 70 24 0.0 3.5 0.00 0.00 0.00 53 1010.4
20260505024605 72 32 0.0 2.6 0.00 0.00 0.00 50 1010.3
20260505023030 74 20 0.0 4.3 0.00 0.00 0.00 49 1010.1
20260505021530 75 29 0.9 4.3 0.00 0.00 0.00 47 1010.1
20260505020107 76 52 1.7 4.3 0.00 0.00 0.00 45 1010.0
20260505014532 77 43 0.9 3.5 0.00 0.00 0.00 44 1010.0
20260505013030 78 42 0.9 4.3 0.00 0.00 0.00 42 1010.0
20260505011530 79 46 1.7 6.1 0.00 0.00 0.00 42 1010.0
20260505010032 79 47 1.7 5.2 0.00 0.00 0.00 40 1009.9
20260505003103 81 47 1.7 4.3 0.00 0.00 0.00 39 1010.1
20260505001606 81 53 1.7 5.2 0.00 0.00 0.00 39 1010.1
20260505000034 81 42 1.7 4.3 0.00 0.00 0.00 38 1010.2
20260504234531 82 42 1.7 4.3 0.00 0.00 0.00 38 1010.2
20260504233031 83 50 1.7 5.2 0.00 0.00 0.00 37 1010.2
20260504231530 83 55 0.9 3.5 0.00 0.00 0.00 37 1010.4
20260504230107 83 56 1.7 4.3 0.00 0.00 0.00 36 1010.6
20260504224531 83 49 1.7 4.3 0.00 0.00 0.00 36 1010.7
20260504223106 83 46 1.7 4.3 0.00 0.00 0.00 36 1010.8
20260504221530 83 37 1.7 5.2 0.00 0.00 0.00 35 1010.9
20260504220029 83 46 0.9 5.2 0.00 0.00 0.00 34 1011.0
20260504214531 84 44 0.9 4.3 0.00 0.00 0.00 31 1011.2
20260504213030 84 27 0.9 5.2 0.00 0.00 0.00 30 1011.3